Paris Le Bourget, France

4:35 AM CEST on September 23, 2017 (GMT +0200)
Le Bourget

Weather History for LFPB - December, 2012

Change the Weather History Date:

Tuesday, December 18, 2012

  Actual Average Record
Temperature  
Mean Temperature 45 °F -  
Max Temperature 48 °F 43 °F 57 °F (2014)
Min Temperature 42 °F 35 °F 23 °F (2007)
Degree Days  
Heating Degree Days 20    
Moisture  
Dew Point 40 °F    
Average Humidity 85    
Maximum Humidity 100    
Minimum Humidity 71    
Precipitation  
Precipitation 0.00 in 0.07 in - ()
Sea Level Pressure  
Sea Level Pressure 29.97 in    
Wind  
Wind Speed 6 mph ()    
Max Wind Speed 10 mph    
Max Gust Speed -    
Visibility 6.0 miles    
Events Rain    
Averages and records for this station are not official NWS values.
T = Trace of Precipitation, MM = Missing Value Source: Averaged Metar Reports

Daily Weather History Graph

Daily Weather History Graph

Search for Another Location

Airport or City:

Trip Planner

Search our weather history database for the weather conditions in past years. The results will help you decide how hot, cold, wet, or windy it might be!

Date:

Astronomy

Dec. 18, 2012 Rise Set
Actual Time 8:39 AM CET 4:54 PM CET
Civil Twilight 8:02 AM CET 5:31 PM CET
Nautical Twilight 7:21 AM CET 6:12 PM CET
Astronomical Twilight 6:43 AM CET 6:50 PM CET
Moon 11:45 AM CET (12/18) 11:33 PM CET (12/18)
Length of Visible Light 9h 29m
Length of Day
8h 14m
Waxing Crescent, 32% of the Moon is Illuminated
Dec 18
Waxing Crescent
Dec 20
First Quarter
Dec 28
Full
Jan 5
Last Quarter
Jan 11
New

Hourly Weather History & Observations

Time (CET) Temp. Windchill Dew Point Humidity Pressure Visibility Wind Dir Wind Speed Gust Speed Precip Events Conditions
1:30 AM 42.8 °F 38.0 °F 37.4 °F 81% 29.83 in 6.2 mi WSW 8.1 mph - N/A   Mostly Cloudy
2:00 AM 42.8 °F 39.3 °F 37.4 °F 81% 29.83 in 6.2 mi SW 5.8 mph - N/A   Overcast
2:30 AM 42.8 °F 40.1 °F 37.4 °F 81% 29.83 in 6.2 mi SW 4.6 mph - N/A   Overcast
3:00 AM 42.8 °F 38.6 °F 39.2 °F 87% 29.83 in 6.2 mi SW 6.9 mph - N/A Rain Light Rain
3:30 AM 42.8 °F 38.0 °F 39.2 °F 87% 29.83 in 6.2 mi SW 8.1 mph - N/A Rain Light Rain
4:00 AM 42.8 °F 37.5 °F 41.0 °F 93% 29.83 in 4.3 mi WSW 9.2 mph - N/A Rain Rain
4:30 AM 42.8 °F 40.1 °F 41.0 °F 93% 29.83 in 5.0 mi SW 4.6 mph - N/A Rain Rain
5:00 AM 42.8 °F - 41.0 °F 93% 29.83 in 1.2 mi SE 2.3 mph - N/A Rain Light Rain
5:30 AM 42.8 °F 41.1 °F 41.0 °F 93% 29.83 in 6.2 mi ESE 3.5 mph - N/A   Overcast
6:00 AM 42.8 °F - 41.0 °F 93% 29.83 in 6.2 mi Variable 2.3 mph - N/A   Overcast
6:30 AM 42.8 °F 41.1 °F 41.0 °F 93% 29.86 in 6.2 mi WNW 3.5 mph - N/A   Overcast
7:00 AM 44.6 °F 40.7 °F 42.8 °F 93% 29.86 in 6.2 mi WNW 6.9 mph - N/A   Mostly Cloudy
7:30 AM 44.6 °F 40.7 °F 42.8 °F 93% 29.86 in 6.2 mi West 6.9 mph - N/A   Mostly Cloudy
8:00 AM 44.6 °F 40.2 °F 42.8 °F 93% 29.89 in 6.2 mi West 8.1 mph - N/A   Mostly Cloudy
8:30 AM 42.8 °F 38.6 °F 41.0 °F 93% 29.89 in 6.2 mi West 6.9 mph - N/A   Mostly Cloudy
9:00 AM 44.6 °F 40.7 °F 42.8 °F 93% 29.89 in 6.2 mi West 6.9 mph - N/A   Mostly Cloudy
9:30 AM 44.6 °F 40.2 °F 42.8 °F 93% 29.92 in 6.2 mi West 8.1 mph - N/A   Overcast
10:00 AM 44.6 °F 40.2 °F 44.6 °F 100% 29.95 in 6.2 mi West 8.1 mph - N/A   Overcast
10:30 AM 46.4 °F 41.5 °F 42.8 °F 87% 29.95 in 6.2 mi West 10.4 mph - N/A   Overcast
11:00 AM 46.4 °F 42.4 °F 44.6 °F 93% 29.95 in 6.2 mi West 8.1 mph - N/A   Unknown
11:30 AM 46.4 °F 42.9 °F 44.6 °F 93% 29.98 in 6.2 mi WNW 6.9 mph - N/A Rain Light Rain
12:00 PM 46.4 °F 42.4 °F 42.8 °F 87% 29.98 in 6.2 mi WNW 8.1 mph - N/A   Mostly Cloudy
12:30 PM 46.4 °F 42.9 °F 42.8 °F 87% 29.98 in 6.2 mi WNW 6.9 mph - N/A   Mostly Cloudy
1:00 PM 46.4 °F 42.4 °F 42.8 °F 87% 29.98 in 6.2 mi West 8.1 mph - N/A   Overcast
1:30 PM 48.2 °F - 42.8 °F 82% 29.98 in 6.2 mi WNW 6.9 mph - N/A   Mostly Cloudy
2:00 PM 48.2 °F - 42.8 °F 82% 29.98 in 6.2 mi WNW 9.2 mph - N/A   Overcast
2:30 PM 48.2 °F - 41.0 °F 76% 30.01 in 6.2 mi WNW 9.2 mph - N/A   Mostly Cloudy
3:00 PM 48.2 °F - 41.0 °F 76% 30.01 in 6.2 mi WNW 8.1 mph - N/A   Overcast
3:30 PM 46.4 °F 42.9 °F 39.2 °F 76% 30.01 in 6.2 mi WNW 6.9 mph - N/A   Overcast
4:00 PM 46.4 °F 42.9 °F 39.2 °F 76% 30.04 in 6.2 mi WNW 6.9 mph - N/A   Overcast
4:30 PM 46.4 °F 41.9 °F 39.2 °F 76% 30.06 in 6.2 mi WNW 9.2 mph - N/A   Overcast
5:00 PM 46.4 °F 42.9 °F 39.2 °F 76% 30.06 in 6.2 mi WNW 6.9 mph - N/A   Overcast
5:30 PM 46.4 °F 44.3 °F 39.2 °F 76% 30.06 in 6.2 mi WNW 4.6 mph - N/A   Overcast
6:00 PM 46.4 °F 43.5 °F 39.2 °F 76% 30.09 in 6.2 mi West 5.8 mph - N/A   Overcast
6:30 PM 46.4 °F 44.3 °F 39.2 °F 76% 30.09 in 6.2 mi West 4.6 mph - N/A   Overcast
7:00 PM 46.4 °F 45.2 °F 39.2 °F 76% 30.09 in 6.2 mi WNW 3.5 mph - N/A   Overcast
7:30 PM 46.4 °F 45.2 °F 37.4 °F 71% 30.09 in 6.2 mi Variable 3.5 mph - N/A   Overcast
8:00 PM 46.4 °F 45.2 °F 37.4 °F 71% 30.09 in 6.2 mi NW 3.5 mph - N/A   Overcast
8:30 PM 44.6 °F - 37.4 °F 76% 30.12 in 6.2 mi Variable 1.2 mph - N/A   Overcast
9:00 PM 44.6 °F - 37.4 °F 76% 30.12 in 6.2 mi NW 2.3 mph - N/A   Overcast
9:30 PM 44.6 °F - 37.4 °F 76% 30.12 in 6.2 mi WSW 1.2 mph - N/A   Overcast
10:00 PM 42.8 °F - 37.4 °F 81% 30.12 in 6.2 mi SW 2.3 mph - N/A   Overcast
10:30 PM 42.8 °F - 39.2 °F 87% 30.12 in 6.2 mi WSW 2.3 mph - N/A   Overcast
11:00 PM 42.8 °F 41.1 °F 39.2 °F 87% 30.12 in 6.2 mi WSW 3.5 mph - N/A   Overcast
11:30 PM 42.8 °F - 39.2 °F 87% 30.15 in 6.2 mi Variable 2.3 mph - N/A   Overcast